Salgado Filho Airport
SBPA : rendu visible

Aérodrome :











RETROUVEZ-NOUS SUR...

 
LOGIN :

S'inscrire | Disclaimer

   EN    FR    IT 

 









Légende :    VFR   VFR Marginal   IFR   IFR Intensif   IFR Très Intensif
Visi : 
Plafond : 
>= 8 km
>= 3000ft
5 à 8 km
1000 à 3000 ft
1500m à 5 km
500 à 1000 ft
800 à 1500m
200 à 500 ft
< 800m
< 200 ft
Symboles :   Orages  Brouillard  Fortes neiges  Fortes précipitations  Vent > 20 kt






- Altitude de l'aérodrome : 11 ft
- Code IATA : POA


SBPA - Salgado Filho

DERNIER METAR :
  • 221300Z 12011KT CAVOK 15/09 Q1026

METARs EXPIRÉS :
  • 221200Z 10011KT CAVOK 14/09 Q1027
  • 221100Z 07007KT 9999 CAVOK 12/08 Q1008

TAF TAF SBPA
Valide du 22 à 12h jusqu'au 23 à 12h UTC


220900Z 2212/2312 25005KT 9999 SCT020 TX19/2217Z TN15/2309Z
BECMG 2214/2216 28004KT CAVOK
BECMG 2220/22122 14007KT
BECMG 2300/2302 SCT020
BECMG 2304/2306 31004KT CAVOK RMK PEQ
FIR SBCW / Amérique du Sud



MET'MAP, la Météo Aéronautique d'un coup d'oeil ! - Copyright ORBIFLY Décembre 2007 - Disclaimer

ORBIFLY MET'MAP TEAM :

Programmation & Développement : Alexandra Zaïnal
Sur une idée originale de : Baudouin d'Aumeries
Assistance à la programmation : Marc-Olivier Méhu
Soutien technique & logistique : Manuel Goepfert

Contact : metmap@orbifly.com




SOURCES & CREDITS :

   NOAA       Earth
Advisory